Location: Paderno d�Adda
(45.6667°N, 9.4333°E)
Time: 14:29:06
(UTC+00:00)

BREEZE-M R/B - Pass Details

Date: 19 September 2020
Orbit: 268 x 23042 km, 49.2° (Epoch: 29 October)

Event Time Altitude Azimuth Distance (km) Brightness Sun altitude
Rises 18:13:54 0° 235° (SW) 11,309 10.7 -9.3°
Reaches altitude 10° 18:25:46 10° 236° (SW) 7,035 9.5 -11.3°
Maximum altitude 18:40:14 71° 157° (SSE) 1,016 4.5 -13.8°
Enters shadow 18:42:55 19° 75° (ENE) 1,472 5.0 -14.2°
